STARLINK-4082 (52658 NORAD) Tracking and Keplerian Element Data

This shows tracking and keplerian element data for the satellite.

Feedback or suggestion? Click here.




ElementValue
Catalog52658
NameSTARLINK-4082
Epoch Orbit130
Epoch Day192.91667824
Epoch Year2022
RAAN35.3635
Inclination53.2175
Eccentricity0.0001431
Argument of Perigee59.872
Mean Anonmoly264.2463
Mean Motion15.18269904
Decay Rate-0.00723307
L11 52658U 22053C 22192.91667824 -.00723307 00000+0 -37428-1 0 9995
L22 52658 53.2175 35.3635 0001431 59.8720 264.2463 15.18269904 1302

Live tracking and technical data element details for STARLINK-4082 (NORAD 52658). STARLINK-4082 can be tracked NOW for your location showing map with azimuth and elevation plus other details from your city location.

Track the satellite on the map from your city or location and see movement details for azimuth, elevation, latitude, longitude, range, height, and movement on the map or in text.







IsCatalogInMostPopularTable: catalog: 52658, numindb: 6
Update: records affected: 1



GetName: 52658 STARLINK-4082

Hit Count: updated at: Sun, 14 Aug 2022 00:58:12 GMT